Hourly Weather Roundup
Issued by NWS Central Illinois

Home | Current Version | Previous Version | Text Only | Print | Product List | Glossary On
Versions: 1 2 3 4 5 6 7 8 9 10 11 12 13 14 15 16 17 18 19 20 21 22 23 24 25 26 27 28 29 30 31 32 33 34 35 36 37 38 39 40 41 42 43 44 45 46 47 48 49 50
000
NZUS43 KILX 160010
HWRILX

AREA WEATHER ROUNDUP
NATIONAL WEATHER SERVICE, LINCOLN IL
700 PM CDT MON SEP 15 2014


CITY           SKY/WX    TMP DP  RH WIND       PRES   REMARKS
BLOOMINGTON    CLOUDY    56  55  96 NW9       30.12R
CHAMPAIGN      LGT RAIN  58  58 100 NW5       30.09R VSB 3/4
6HR MIN TEMP:  56; 6HR MAX TEMP:  59; 6HR PCP:  0.34;

DECATUR        CLOUDY    60  59  96 NW8       30.10R
6HR MIN TEMP:  57; 6HR MAX TEMP:  61; 6HR PCP:  0.30;

FLORA          CLEAR     66  61  84 CALM      30.05F
6HR MIN TEMP:  66; 6HR MAX TEMP:  74;

GALESBURG      CLOUDY    57  53  88 N13       30.14R
JACKSONVILLE   MOCLDY    62  60  94 N5        30.13R
6HR MIN TEMP:  61; 6HR MAX TEMP:  64; 6HR PCP:  0.02;

LACON          CLOUDY    56  55  94 N3        30.12R FOG
6HR MIN TEMP:  56; 6HR MAX TEMP:  58; 6HR PCP:  0.09;

LAWRENCEVILLE  CLOUDY    66  59  78 SE6       30.05F
6HR MIN TEMP:  65; 6HR MAX TEMP:  73; 6HR PCP: TRACE;

LITCHFIELD     CLOUDY    60  60  98 NW9       30.09R FOG
$$


CITY           SKY/WX    TMP DP  RH WIND       PRES   REMARKS
LINCOLN        CLOUDY    60  58  94 CALM      30.10R FOG
6HR MIN TEMP:  58; 6HR MAX TEMP:  60; 6HR PCP:  0.23;

MACOMB         CLOUDY    60  56  85 N13       30.15R
MATTOON        RAIN      59  58  96 NW3       30.07R FOG
6HR MIN TEMP:  56; 6HR MAX TEMP:  60; 6HR PCP:  0.30;

MT CARMEL AP   CLOUDY    70  59  68 SE5       30.05F
OLNEY-NOBLE AP DRIZZLE   64  61  88 CALM      30.05S
PARIS          RAIN      58  58  99 CALM      30.09R
6HR MIN TEMP:  56; 6HR MAX TEMP:  58; 6HR PCP:  0.42;

PEORIA         MOCLDY    60  56  86 NE5       30.12R
6HR MIN TEMP:  59; 6HR MAX TEMP:  61; 6HR PCP:  0.02;

PONTIAC        CLOUDY    57  57 100 N5        30.11R FOG
RANTOUL        DRIZZLE   59  56  92 N3        30.11R
6HR MIN TEMP:  56; 6HR MAX TEMP:  60;

ROBINSON       LGT RAIN  62  61  96 SE5       30.06F
6HR MIN TEMP:  61; 6HR MAX TEMP:  68; 6HR PCP:  0.52;

SPRINGFIELD    CLOUDY    61  58  90 N8        30.12R
6HR MIN TEMP:  58; 6HR MAX TEMP:  62; 6HR PCP:  0.09;

TAYLORVILLE    CLOUDY    59  59 100 NW5       30.09S FOG
$$

...REGIONAL REPORTS...


CITY           SKY/WX    TMP DP  RH WIND       PRES   REMARKS
CHICAGO O`HARE MOCLDY    57  51  80 NE8       30.11S
KANKAKEE       CLOUDY    55  54  98 CALM      30.12R FOG
MOLINE         CLOUDY    58  49  72 N9        30.16R
MOUNT VERNON   CLOUDY    66  63  88 CALM      30.06F
PITTSFIELD     CLOUDY    62  58  88 CALM      30.13S
QUINCY         CLOUDY    63  59  87 NW3       30.12R
ROCKFORD       PTCLDY    54  48  80 N7        30.17R
$$


CITY           SKY/WX    TMP DP  RH WIND       PRES   REMARKS
BURLINGTON     CLOUDY    59  53  80 N10       30.15R
CEDAR RAPIDS   CLOUDY    57  49  74 N8        30.18R
DES MOINES     MOCLDY    60  46  59 N5        30.21R
KIRKSVILLE     CLOUDY    59  52  77 N14G20    30.18R
OTTUMWA        CLOUDY    58  48  69 N13       30.19R
ST LOUIS       LGT RAIN  66  63  90 NW13      30.09R FOG
$$


CITY           SKY/WX    TMP DP  RH WIND       PRES   REMARKS
TERRE HAUTE    CLOUDY    58  56  93 E3        30.06F
EVANSVILLE     CLOUDY    73  58  59 S5        30.06S
INDIANAPOLIS   RAIN      57  54  89 W5        30.08R FOG
LAFAYETTE      CLOUDY    56  55  97 CALM      30.10R FOG
MADISON        PTCLDY    52  46  80 NW3       30.15S
MILWAUKEE      MOCLDY    53  49  86 N3        30.14R
$$





USA.gov is the U.S. government's official web portal to all federal, state and local government web resources and services.